Terug naar catalogus

STARLINK-30920

ActiefCommunicatieVLEO
NORAD 58378·PAYLOAD·🇺🇸 United States

Gelanceerd Nov 20, 2023 vanaf Vandenberg Space Force Base

Loading…

Volgende Passages (komende 24 uur)

TLE

VersSource: CelesTrak SupGP

Epoch: Sep 14, 2026, 20:30 UTC

1 58378C 23178E   26257.85465278  .00019282  00000+0  56948-3 0  2572
2 58378  53.1575 187.8767 0001404  93.2782  89.7995 15.34392712    18

Volg STARLINK-30920 in realtime met AllMySat

Download on the App Store